DW5338 Weather Reports


Display with metric or nautical units.
time (UTC)temp
F
wind
direction
speed
MPH
gust
MPH
rain 1hr
in
rain 24hr
in
rain mn
in
humidity
%
barometer
mb
20260508113518 36 293 1.0 2.0 0.00 0.10 0.00 82 1017.4
20260508112517 37 113 1.0 2.0 0.00 0.10 0.00 81 1017.2
20260508111537 37 113 2.0 3.0 0.00 0.10 0.00 78 1017.3
20260508110517 39 45 3.0 10.0 0.00 0.10 0.00 70 1017.7
20260508105517 43 225 3.0 7.0 0.00 0.10 0.00 53 1017.9
20260508104517 43 270 4.0 7.0 0.00 0.10 0.00 55 1017.8
20260508103520 41 270 5.0 10.0 0.00 0.10 0.00 63 1017.5
20260508102537 40 225 3.0 6.0 0.00 0.10 0.00 67 1017.3
20260508101517 38 225 3.0 5.0 0.00 0.10 0.00 79 1017.0
20260508100517 36 270 3.0 6.0 0.00 0.10 0.00 86 1017.0
20260508095517 36 270 4.0 7.0 0.00 0.10 0.00 89 1016.9
20260508094520 36 248 2.0 2.0 0.00 0.10 0.00 90 1016.7
20260508093537 36 225 2.0 4.0 0.00 0.10 0.00 90 1017.0
20260508092537 36 248 3.0 8.0 0.00 0.10 0.00 90 1017.1
20260508091520 36 270 1.0 3.0 0.00 0.10 0.00 88 1017.0
20260508090520 36 270 1.0 4.0 0.00 0.10 0.00 87 1016.9
20260508085536 37 45 2.0 4.0 0.00 0.10 0.00 86 1017.0
20260508084517 37 68 3.0 7.0 0.00 0.10 0.00 85 1016.9
20260508083520 38 90 3.0 8.0 0.00 0.10 0.00 84 1017.0
20260508082520 38 45 5.0 9.0 0.00 0.10 0.00 82 1017.2
20260508081517 39 68 2.0 6.0 0.00 0.10 0.00 71 1017.5
20260508080517 40 68 4.0 8.0 0.00 0.10 0.00 71 1017.5
20260508075517 41 90 3.0 8.0 0.00 0.10 0.00 71 1017.7
20260508074520 42 338 4.0 17.0 0.00 0.10 0.00 67 1018.0
20260508073520 44 270 4.0 12.0 0.00 0.10 0.00 57 1018.2
20260508072520 39 270 8.0 14.0 0.00 0.10 0.00 65 1017.9
20260508071520 39 293 3.0 7.0 0.00 0.10 0.00 76 1017.8
20260508070600 39 23 6.0 10.0 0.00 0.10 0.00 75 1017.4
20260508065520 40 315 4.0 7.0 0.00 0.10 0.00 72 1017.7
20260508064520 40 270 3.0 7.0 0.00 0.10 0.00 72 1017.6
20260508063516 38 270 6.0 12.0 0.00 0.10 0.00 74 1017.3
20260508062520 39 203 3.0 10.0 0.00 0.10 0.00 75 1017.5
20260508061520 40 203 3.0 4.0 0.00 0.10 0.00 74 1017.8
20260508060520 40 203 4.0 7.0 0.00 0.10 0.00 79 1017.2
20260508055540 40 225 3.0 6.0 0.00 0.10 0.10 79 1017.5
20260508054539 40 113 1.0 3.0 0.00 0.10 0.10 79 1017.6
20260508053519 40 158 1.0 3.0 0.00 0.10 0.10 80 1017.6
20260508052519 41 45 4.0 7.0 0.00 0.10 0.10 74 1017.7
20260508051519 41 0 4.0 10.0 0.00 0.10 0.10 74 1018.0
20260508050520 41 315 9.0 13.0 0.00 0.10 0.10 70 1017.7
20260508045519 42 203 1.0 4.0 0.00 0.10 0.10 68 1017.3
20260508044520 43 293 5.0 9.0 0.00 0.10 0.10 65 1017.5
20260508043516 44 180 2.0 6.0 0.00 0.10 0.10 62 1017.1
20260508042516 43 225 1.0 3.0 0.00 0.10 0.10 63 1017.2
20260508041516 44 68 3.0 6.0 0.00 0.10 0.10 64 1017.4
20260508040519 43 90 3.0 5.0 0.00 0.10 0.10 65 1017.5
20260508035520 43 45 4.0 9.0 0.00 0.10 0.10 66 1017.5
20260508034520 42 315 6.0 11.0 0.00 0.10 0.10 70 1017.4
20260508033516 42 180 2.0 9.0 0.00 0.10 0.10 69 1016.9
20260508032536 42 158 2.0 4.0 0.00 0.10 0.10 71 1016.8
20260508031536 43 180 4.0 8.0 0.00 0.10 0.10 68 1016.6
20260508030516 45 203 3.0 8.0 0.00 0.10 0.10 64 1017.1
20260508025516 45 248 4.0 9.0 0.00 0.10 0.10 60 1017.1
20260508024520 45 225 6.0 11.0 0.00 0.10 0.10 61 1017.1
20260508023516 45 248 7.0 13.0 0.00 0.10 0.10 60 1017.1
20260508022521 44 248 6.0 11.0 0.00 0.10 0.10 62 1016.8
20260508021517 43 225 4.0 11.0 0.00 0.10 0.10 68 1016.9
20260508020516 43 225 6.0 16.0 0.00 0.10 0.10 68 1017.0
20260508015516 44 225 9.0 17.0 0.00 0.10 0.10 64 1017.0
20260508014519 46 225 10.0 25.0 0.00 0.10 0.10 59 1017.4
20260508013520 47 225 9.0 19.0 0.00 0.10 0.10 53 1016.8
20260508012539 48 203 6.0 12.0 0.00 0.10 0.10 50 1016.9
20260508011519 49 225 7.0 15.0 0.00 0.10 0.10 48 1016.8
20260508010519 50 270 8.0 16.0 0.00 0.10 0.10 44 1017.1
20260508005519 51 270 15.0 25.0 0.00 0.15 0.10 42 1017.1
20260508004539 52 270 13.0 21.0 0.00 0.15 0.10 40 1017.3
20260508003519 53 270 10.0 17.0 0.00 0.15 0.10 38 1017.3
20260508002539 53 270 5.0 10.0 0.00 0.15 0.10 36 1017.0
20260508001516 53 270 4.0 8.0 0.00 0.15 0.10 39 1016.9
20260508000516 52 270 7.0 16.0 0.00 0.15 0.10 39 1016.5
20260507235516 52 270 10.0 18.0 0.00 0.21 0.10 37 1016.6
20260507234516 52 270 12.0 19.0 0.00 0.21 0.10 37 1016.5
20260507233516 52 270 11.0 21.0 0.00 0.21 0.10 37 1016.5
20260507232515 52 270 8.0 16.0 0.00 0.21 0.10 38 1016.6
20260507231516 52 270 9.0 17.0 0.00 0.21 0.10 37 1016.8
20260507230516 52 270 4.0 9.0 0.00 0.21 0.10 37 1016.7
20260507225516 52 270 10.0 15.0 0.00 0.25 0.10 36 1016.8
20260507224516 53 270 6.0 11.0 0.00 0.25 0.10 37 1017.1
20260507223516 52 270 9.0 16.0 0.00 0.25 0.10 37 1016.8
20260507222541 52 293 8.0 14.0 0.00 0.25 0.10 36 1017.0
20260507221521 52 270 3.0 7.0 0.00 0.25 0.10 38 1017.0
20260507220516 51 315 2.0 6.0 0.00 0.25 0.10 37 1017.2
20260507215516 51 270 6.0 10.0 0.00 0.29 0.10 37 1017.5
20260507214516 52 270 7.0 13.0 0.00 0.29 0.10 36 1017.7
20260507213516 53 293 5.0 12.0 0.00 0.29 0.10 35 1018.0
20260507212516 53 293 4.0 10.0 0.00 0.29 0.10 35 1018.2
20260507211516 54 225 3.0 9.0 0.00 0.29 0.10 35 1018.3
20260507210556 55 248 2.0 10.0 0.00 0.29 0.10 37 1018.4
20260507205536 54 270 5.0 11.0 0.00 0.32 0.10 34 1018.3
20260507204539 54 293 6.0 12.0 0.00 0.32 0.10 36 1018.6
20260507203519 53 270 6.0 16.0 0.00 0.32 0.10 39 1018.4
20260507202519 53 270 5.0 10.0 0.00 0.32 0.10 38 1018.8
20260507201515 52 293 9.0 14.0 0.00 0.32 0.10 39 1018.7
20260507200519 51 270 9.0 13.0 0.00 0.32 0.10 39 1018.6
20260507195516 52 270 8.0 15.0 0.00 0.37 0.10 39 1018.7
20260507194535 52 270 10.0 20.0 0.00 0.37 0.10 39 1018.7
20260507193536 51 270 9.0 16.0 0.00 0.37 0.10 40 1019.1
20260507192519 50 270 9.0 17.0 0.00 0.37 0.10 42 1019.1
20260507191519 49 270 11.0 24.0 0.00 0.37 0.10 42 1018.8
20260507190519 49 248 9.0 18.0 0.00 0.37 0.10 42 1018.8
20260507185519 49 248 5.0 11.0 0.02 0.40 0.10 45 1019.0
20260507184516 49 270 9.0 15.0 0.03 0.40 0.10 43 1019.2
20260507183515 48 225 11.0 22.0 0.04 0.40 0.10 44 1018.8
20260507182535 48 270 15.0 23.0 0.04 0.40 0.10 44 1018.8
20260507181522 47 248 13.0 27.0 0.05 0.40 0.10 43 1019.0
20260507180515 48 270 9.0 16.0 0.06 0.40 0.10 44 1019.2
20260507175555 47 270 11.0 18.0 0.05 0.38 0.08 48 1019.3
20260507174515 44 270 10.0 20.0 0.05 0.37 0.07 51 1018.8
20260507173535 44 270 13.0 22.0 0.04 0.36 0.06 51 1018.4
20260507172515 44 270 12.0 27.0 0.05 0.36 0.06 51 1018.2
20260507171515 43 270 8.0 18.0 0.04 0.35 0.05 55 1018.1
20260507170515 43 270 7.0 19.0 0.03 0.34 0.04 54 1018.4
20260507165515 43 248 9.0 17.0 0.02 0.33 0.03 53 1018.7
20260507164515 43 225 4.0 10.0 0.01 0.32 0.02 54 1018.9
20260507163515 41 203 6.0 15.0 0.01 0.32 0.02 54 1018.6
20260507162519 41 158 5.0 12.0 0.00 0.31 0.01 57 1018.7
20260507161519 40 158 6.0 17.0 0.00 0.31 0.01 55 1018.9
20260507160539 40 158 6.0 10.0 0.00 0.31 0.01 56 1019.1
20260507155516 39 158 6.0 13.0 0.00 0.31 0.01 58 1019.5
20260507154515 39 158 7.0 18.0 0.00 0.31 0.01 58 1019.6
20260507153515 39 180 9.0 22.0 0.00 0.31 0.01 53 1019.6
20260507152515 39 180 12.0 21.0 0.00 0.31 0.01 55 1019.5
20260507151518 38 225 9.0 23.0 0.00 0.31 0.01 55 1019.4
20260507150515 38 225 9.0 17.0 0.00 0.31 0.01 57 1019.9
20260507145515 39 248 10.0 15.0 0.00 0.31 0.01 59 1019.7
20260507144515 40 248 9.0 18.0 0.00 0.31 0.01 56 1019.4
20260507143516 40 248 6.0 12.0 0.01 0.31 0.01 58 1019.6
20260507142519 39 225 6.0 11.0 0.01 0.31 0.01 59 1019.0
20260507141516 39 225 8.0 16.0 0.01 0.31 0.01 57 1019.3
20260507140518 40 225 9.0 16.0 0.01 0.31 0.01 56 1019.4
20260507135519 39 225 7.0 15.0 0.01 0.31 0.01 58 1019.3
20260507134535 39 225 8.0 15.0 0.01 0.31 0.01 58 1019.3
20260507133515 40 225 8.0 16.0 0.00 0.30 0.00 56 1019.7
20260507132515 39 225 7.0 17.0 0.00 0.30 0.00 58 1019.7
20260507131519 38 248 8.0 16.0 0.00 0.30 0.00 58 1019.3
20260507130515 36 225 9.0 20.0 0.00 0.30 0.00 59 1019.3
20260507125515 36 225 10.0 17.0 0.00 0.30 0.00 59 1019.3
20260507124520 35 180 5.0 16.0 0.00 0.30 0.00 63 1019.1
20260507123515 34 180 4.0 8.0 0.00 0.30 0.00 63 1019.1
20260507122515 35 225 3.0 12.0 0.00 0.30 0.00 62 1018.9
20260507121518 35 203 6.0 10.0 0.00 0.30 0.00 58 1019.0
20260507120519 35 225 8.0 16.0 0.00 0.30 0.00 56 1019.1
20260507115519 36 225 11.0 22.0 0.00 0.30 0.00 55 1018.7
20260507114518 35 248 6.0 15.0 0.00 0.30 0.00 59 1018.8